FW7729 Weather Reports


Display with metric or nautical units.
time (UTC)temp
F
wind
direction
speed
MPH
gust
MPH
rain 1hr
in
rain 24hr
in
rain mn
in
humidity
%
barometer
mb
20260505050526 63 233 1.0 0.0 0.00 0.00 0.00 75 1010.2
20260505041002 64 236 1.0 0.0 0.00 0.00 0.00 72 1010.5
20260505040428 64 236 1.0 0.0 0.00 0.00 0.00 72 1010.4
20260505035854 64 213 0.0 0.0 0.00 0.00 0.00 72 1010.5
20260505035320 64 213 0.0 0.0 0.00 0.00 0.00 71 1010.4
20260505034216 65 213 0.0 0.0 0.00 0.00 0.00 70 1010.4
20260505032542 65 213 0.0 0.0 0.00 0.00 0.00 69 1010.5
20260505032007 65 213 0.0 0.0 0.00 0.00 0.00 69 1010.3
20260505030904 65 213 0.0 0.0 0.00 0.00 0.00 68 1010.3
20260505030329 65 213 0.0 0.0 0.00 0.00 0.00 67 1010.3
20260505025755 66 213 0.0 0.0 0.00 0.00 0.00 67 1010.3
20260505024651 66 213 0.0 0.0 0.00 0.00 0.00 66 1010.2
20260505023547 67 213 0.0 0.0 0.00 0.00 0.00 65 1010.3
20260505023013 67 213 1.0 0.0 0.00 0.00 0.00 64 1010.3
20260505021909 67 213 0.0 0.0 0.00 0.00 0.00 64 1010.3
20260505021335 68 213 0.0 0.0 0.00 0.00 0.00 63 1010.3
20260505020801 68 213 0.0 0.0 0.00 0.00 0.00 63 1010.3
20260505020227 68 213 0.0 0.0 0.00 0.00 0.00 63 1010.2
20260505015653 68 176 1.0 0.0 0.00 0.00 0.00 62 1010.1
20260505015119 68 171 2.0 0.0 0.00 0.00 0.00 62 1010.1
20260505013445 68 187 1.0 0.0 0.00 0.00 0.00 62 1010.0
20260505011810 69 177 0.0 0.0 0.00 0.00 0.00 61 1009.7
20260505011237 69 191 1.0 0.0 0.00 0.00 0.00 61 1009.7
20260505010702 69 192 0.0 0.0 0.00 0.00 0.00 61 1009.7
20260505005558 69 192 0.0 0.0 0.00 0.00 0.00 60 1009.6
20260505005024 69 192 1.0 0.0 0.00 0.00 0.00 60 1009.6
20260505003350 70 192 1.0 0.0 0.00 0.00 0.00 59 1009.6
20260505002816 70 192 0.0 0.0 0.00 0.00 0.00 58 1009.5
20260505002242 70 192 0.0 0.0 0.00 0.00 0.00 58 1009.5
20260505001708 70 192 0.0 0.0 0.00 0.00 0.00 58 1009.5
20260505000603 71 193 0.0 0.0 0.00 0.00 0.00 57 1009.5
20260505000029 71 193 0.0 0.0 0.00 0.00 0.00 57 1009.4
20260504234925 71 194 0.0 0.0 0.00 0.00 0.00 56 1009.4
20260504234351 72 197 1.0 0.0 0.00 0.00 0.00 56 1009.3
20260504233817 72 176 1.0 0.0 0.00 0.00 0.00 56 1009.3
20260504233243 72 175 1.0 0.0 0.00 0.00 0.00 55 1009.4
20260504232139 72 249 1.0 0.0 0.00 0.00 0.00 54 1009.3
20260504231035 72 187 1.0 0.0 0.00 0.00 0.00 54 1009.2
20260504225931 73 194 2.0 0.0 0.00 0.00 0.00 53 1009.2
20260504224827 73 223 2.0 0.0 0.00 0.00 0.00 52 1009.1
20260504224253 73 269 2.0 0.0 0.00 0.00 0.00 53 1009.1
20260504222619 73 239 2.0 0.0 0.00 0.00 0.00 51 1009.0
20260504222045 73 197 1.0 0.0 0.00 0.00 0.00 51 1009.1
20260504221511 74 256 2.0 0.0 0.00 0.00 0.00 51 1009.1
20260504220936 74 179 3.0 0.0 0.00 0.00 0.00 50 1009.0
20260504220402 74 184 3.0 0.0 0.00 0.00 0.00 50 1009.0
20260504214728 74 233 2.0 0.0 0.00 0.00 0.00 49 1009.0
20260504214154 74 168 2.0 0.0 0.00 0.00 0.00 50 1009.1
20260504213620 74 215 3.0 0.0 0.00 0.00 0.00 50 1009.1
20260504211946 75 160 2.0 0.0 0.00 0.00 0.00 50 1009.1
20260504211412 75 253 2.0 0.0 0.00 0.00 0.00 49 1009.0
20260504210838 75 251 2.0 0.0 0.00 0.00 0.00 49 1009.0
20260504210304 75 221 1.0 0.0 0.00 0.00 0.00 50 1009.0
20260504205730 74 228 2.0 0.0 0.00 0.00 0.00 49 1009.0
20260504204626 74 260 2.0 0.0 0.00 0.00 0.00 49 1009.1
20260504204051 74 241 1.0 0.0 0.00 0.00 0.00 49 1009.2
20260504202947 74 172 3.0 0.0 0.00 0.00 0.00 48 1009.3
20260504202412 74 204 2.0 0.0 0.00 0.00 0.00 49 1009.3
20260504201838 74 170 3.0 0.0 0.00 0.00 0.00 49 1009.3
20260504201304 74 220 1.0 0.0 0.00 0.00 0.00 49 1009.5
20260504200200 74 134 0.0 0.0 0.00 0.00 0.00 50 1009.6
20260504195626 74 164 2.0 0.0 0.00 0.00 0.00 49 1009.7
20260504194522 73 270 2.0 0.0 0.00 0.00 0.00 49 1009.8
20260504193418 73 160 1.0 0.0 0.00 0.00 0.00 49 1009.8
20260504192844 73 145 1.0 0.0 0.00 0.00 0.00 49 1010.0
20260504191740 73 276 2.0 0.0 0.00 0.00 0.00 52 1010.1
20260504191206 73 215 1.0 0.0 0.00 0.00 0.00 50 1010.2
20260504190632 73 223 1.0 0.0 0.00 0.00 0.00 50 1010.2
20260504184958 72 235 2.0 0.0 0.00 0.00 0.00 50 1010.6
20260504182753 72 257 2.0 0.0 0.00 0.00 0.00 50 1011.0
20260504182219 72 190 2.0 0.0 0.00 0.00 0.00 52 1011.0
20260504181645 72 154 2.0 0.0 0.00 0.00 0.00 50 1011.2
20260504181111 72 208 3.0 0.0 0.00 0.00 0.00 51 1011.3
20260504180537 72 210 1.0 0.0 0.00 0.00 0.00 52 1011.3
20260504180003 72 151 1.0 0.0 0.00 0.00 0.00 53 1011.4
20260504175429 71 170 4.0 0.0 0.00 0.00 0.00 52 1011.5
20260504174325 71 151 2.0 0.0 0.00 0.00 0.00 51 1011.8
20260504173751 71 301 2.0 0.0 0.00 0.00 0.00 53 1011.8
20260504173217 71 249 1.0 0.0 0.00 0.00 0.00 52 1011.9
20260504172643 71 241 2.0 0.0 0.00 0.00 0.00 52 1011.9
20260504172109 70 220 2.0 0.0 0.00 0.00 0.00 52 1011.9
20260504171535 70 164 1.0 0.0 0.00 0.00 0.00 51 1012.0
20260504160329 67 181 1.0 0.0 0.00 0.00 0.00 54 1012.9
20260504150756 65 165 1.0 0.0 0.00 0.00 0.00 55 1013.7
20260504150222 65 171 2.0 0.0 0.00 0.00 0.00 54 1013.6
20260504141224 62 154 2.0 0.0 0.00 0.00 0.00 59 1013.6
20260504140650 61 218 0.0 0.0 0.00 0.00 0.00 58 1013.7
20260504130551 55 180 0.0 0.0 0.00 0.00 0.00 68 1014.1
20260504110338 48 181 0.0 0.0 0.00 0.00 0.00 79 1014.7
20260504100227 49 182 0.0 0.0 0.00 0.00 0.00 77 1014.6
20260504090125 50 182 0.0 0.0 0.00 0.00 0.00 75 1014.9
20260504081704 50 182 1.0 0.0 0.00 0.00 0.00 74 1014.9
20260504081130 50 182 0.0 0.0 0.00 0.00 0.00 74 1014.8
20260504080556 50 179 1.0 0.0 0.00 0.00 0.00 75 1014.7